Kuchera_Ratio
2.2 0.8 0.0 0.0 0.0 0.0 0.6 0.7 2.0 1.1 2.6 3.9 5.7 5.2 6.3 5.2 5.6 4.3 1.6 0.2 0.0 0.0 0.0 0.0 0.0 0.0 0.0 0.0 0.0 0.0 0.0 0.0 0.0 0.0 0.0 0.0 0.0 0.0 0.0 0.0 0.0 0.0 0.0
5.0 3.0 1.2 1.0 1.2 1.3 0.5 1.4 1.6 1.6 2.5 4.0 4.6 5.7 5.5 5.3 5.8 3.8 3.0 1.2 0.0 0.0 0.0 0.0 0.0 0.0 0.0 0.0 0.0 0.0 0.0 0.0 0.0 0.0 0.0 0.0 0.0 0.0 0.0 0.0 0.0 0.0 0.0
6.4 4.9 3.6 1.8 1.2 1.8 1.3 1.7 2.0 2.6 3.3 3.9 5.6 6.1 6.0 7.8 8.8 7.3 6.2 3.0 0.7 0.0 0.0 0.0 0.0 0.0 0.0 0.0 0.0 0.0 0.0 0.0 0.0 0.0 0.0 0.0 0.0 0.0 0.0 0.0 0.0 0.0 0.0
6.9 6.1 4.4 2.8 2.1 2.0 1.8 2.1 3.0 3.5 3.1 5.1 7.5 8.7 9.4 10.3 7.8 7.8 6.0 4.9 2.4 1.4 0.0 0.0 0.0 0.0 0.0 0.0 0.0 0.0 0.0 0.0 0.0 0.0 0.0 0.0 0.0 0.0 0.0 0.0 0.0 0.0 0.0
7.8 5.5 3.1 3.3 3.3 3.3 2.9 3.0 3.7 3.8 4.7 5.2 6.4 8.4 9.9 8.4 7.3 7.8 8.2 6.7 4.5 2.9 0.4 0.0 0.0 0.0 0.0 0.0 0.0 0.0 0.0 0.0 0.0 0.0 0.0 0.0 0.0 0.0 0.0 0.0 0.0 0.0 0.0
6.8 5.4 4.0 3.7 5.2 3.5 4.0 4.9 6.0 5.0 4.2 5.3 6.5 8.4 9.5 9.5 9.9 9.8 10.3 8.7 7.0 5.4 2.3 0.0 0.0 0.0 0.0 0.0 0.0 0.0 0.0 0.0 0.0 0.0 0.0 0.0 0.0 0.0 0.0 0.0 0.0 0.0 0.0
6.8 6.9 6.2 7.5 6.7 5.3 5.0 4.5 4.7 6.1 4.8 4.7 4.9 6.0 8.1 8.6 9.8 9.9 10.1 10.3 9.1 7.6 5.3 0.9 0.0 0.0 0.0 0.0 0.0 0.0 0.0 0.0 0.0 0.0 0.0 0.0 0.0 0.0 0.0 0.0 0.0 0.0 0.0
7.0 8.3 9.4 8.1 7.8 6.1 6.3 6.5 6.8 7.2 6.1 5.6 6.1 5.0 5.9 7.3 8.3 8.5 8.8 9.0 8.6 7.3 4.4 1.9 0.0 0.0 0.0 0.0 0.0 0.0 0.0 0.0 0.0 0.0 0.0 0.0 0.0 0.0 0.0 0.0 0.0 0.0 0.0
8.1 9.8 9.7 8.9 8.8 7.8 7.4 7.4 8.1 8.0 7.5 7.0 6.4 6.3 5.0 6.6 8.1 7.9 7.8 7.9 7.2 4.9 4.9 3.1 1.3 0.0 0.0 0.0 0.0 0.0 0.0 0.0 0.0 0.0 0.0 0.0 0.0 0.0 0.0 0.0 0.0 0.0 0.0
11.0 12.1 10.5 10.6 9.1 8.6 8.2 8.7 8.8 9.5 8.4 8.0 8.0 7.5 7.1 5.9 7.0 7.7 8.9 8.4 7.4 6.4 5.6 4.3 2.0 0.0 0.0 0.0 0.0 0.0 0.0 0.0 0.0 0.0 0.0 0.0 0.0 0.0 0.0 0.0 0.0 0.0 0.0
13.2 13.9 12.5 11.7 10.2 10.3 10.5 9.9 10.4 10.7 10.2 9.9 9.5 10.0 10.0 9.1 8.2 9.1 8.7 8.4 7.7 7.0 6.4 5.0 3.3 1.1 0.0 0.0 0.0 0.0 0.0 0.0 0.0 0.0 0.0 0.0 0.0 0.0 0.0 0.0 0.0 0.0 0.0
14.5 14.5 13.4 12.8 12.9 12.9 12.2 12.4 12.1 12.1 11.7 11.2 11.2 11.1 10.3 9.9 10.3 10.3 9.6 8.5 8.6 6.9 6.4 5.1 3.7 1.3 0.0 0.0 0.0 0.0 0.0 0.0 0.0 0.0 0.0 0.0 0.0 0.0 0.0 0.0 0.0 0.0 0.0
14.7 15.4 14.2 14.6 14.5 13.4 13.5 13.6 13.1 12.9 12.2 12.3 12.6 12.3 12.0 12.0 11.5 10.7 9.9 9.3 9.2 8.4 6.9 5.5 5.2 2.9 0.0 0.0 0.0 0.0 0.0 0.0 0.0 0.0 0.0 0.0 0.0 0.0 0.0 0.0 0.0 0.0 0.0
15.4 16.1 16.5 15.2 14.8 14.1 14.3 14.2 13.7 13.1 13.0 12.7 13.5 13.5 12.9 12.6 12.0 10.6 10.3 10.1 9.5 9.1 8.2 6.4 5.1 3.4 0.4 0.0 0.0 0.0 0.0 0.0 0.0 0.0 0.0 0.0 0.0 0.0 0.0 0.0 0.0 0.0 0.0
15.6 16.7 17.2 16.8 15.8 15.6 15.0 14.5 14.4 13.9 13.2 13.8 14.0 13.5 12.8 12.5 12.1 10.9 11.0 10.2 10.3 9.1 7.9 7.3 5.9 3.8 0.7 0.0 0.0 0.0 0.0 0.0 0.0 0.0 0.0 0.0 0.0 0.0 0.0 0.0 0.0 0.0 0.0
16.8 17.3 17.7 17.0 16.9 16.4 15.9 15.0 14.8 14.7 13.7 14.4 14.4 13.4 12.9 12.7 12.2 11.9 11.6 11.4 11.2 10.7 9.2 8.6 7.0 5.7 0.5 0.0 0.0 0.0 0.0 0.0 0.0 0.0 0.0 0.0 0.0 0.0 0.0 0.0 0.0 0.0 0.0
17.7 18.1 18.5 17.9 17.2 16.8 16.0 16.5 15.5 14.5 14.8 14.5 13.8 13.4 13.2 13.3 12.6 11.7 11.8 12.1 12.2 11.2 10.5 8.7 7.0 5.9 1.9 0.0 0.0 0.0 0.0 0.0 0.0 0.0 0.0 0.0 0.0 0.0 0.0 0.0 0.0 0.0 0.0
17.9 18.4 18.3 18.2 17.0 16.4 16.2 15.2 14.7 15.0 14.9 13.9 12.9 12.2 13.0 13.1 12.7 12.2 12.4 12.7 12.2 12.1 11.0 9.2 6.8 4.9 0.8 0.0 0.0 0.0 0.0 0.0 0.0 0.0 0.0 0.0 0.0 0.0 0.0 0.0 0.0 0.0 0.0
18.1 18.3 18.3 18.2 17.0 17.4 15.9 15.9 15.7 14.6 13.6 12.4 12.1 11.0 10.6 12.3 13.1 12.9 12.7 12.6 12.3 12.0 10.9 8.1 6.9 5.5 2.4 0.0 0.0 0.0 0.0 0.0 0.0 0.0 0.0 0.0 0.0 0.0 0.0 0.0 0.0 0.0 0.0
17.9 18.6 18.7 17.8 18.2 16.7 16.0 15.9 15.6 15.2 13.8 13.4 9.8 9.1 11.6 12.4 13.3 12.5 12.6 12.1 11.3 10.9 8.8 7.6 6.0 3.1 2.0 0.0 0.0 0.0 0.0 0.0 0.0 0.0 0.0 0.0 0.0 0.0 0.0 0.0 0.0 0.0 0.0
17.1 18.5 18.3 18.8 18.0 17.0 16.4 16.4 15.7 15.1 13.3 11.6 8.6 10.2 10.9 11.9 12.1 12.0 12.1 12.1 10.7 9.7 9.3 8.0 5.7 3.4 0.4 0.0 0.0 0.0 0.0 0.0 0.0 0.0 0.0 0.0 0.0 0.0 0.0 0.0 0.0 0.0 0.0
16.6 18.0 18.5 18.0 18.3 16.9 16.7 17.3 16.4 13.7 12.9 11.4 9.4 10.1 10.7 9.8 10.5 12.2 11.6 10.2 10.0 10.6 10.2 8.7 6.7 2.2 0.0 0.0 0.0 0.0 0.0 0.0 0.0 0.0 0.0 0.0 0.0 0.0 0.0 0.0 0.0 0.0 0.0
16.6 17.7 18.9 18.5 18.4 17.1 16.7 17.3 15.8 13.5 13.1 12.1 9.4 10.2 10.0 9.3 9.5 11.0 11.2 11.0 9.4 11.0 9.7 8.5 7.1 3.0 0.0 0.0 0.0 0.0 0.0 0.0 0.0 0.0 0.0 0.0 0.0 0.0 0.0 0.0 0.0 0.0 0.0
16.7 17.6 18.7 18.7 18.9 17.9 17.3 15.9 14.8 13.4 13.0 12.3 9.8 9.9 10.2 10.3 9.2 8.8 8.5 9.5 10.1 10.0 7.9 7.3 6.0 2.3 0.0 0.0 0.0 0.0 0.0 0.0 0.0 0.0 0.0 0.0 0.0 0.0 0.0 0.0 0.0 0.0 0.0
17.4 17.9 19.1 19.0 18.9 18.6 17.2 16.0 14.4 13.9 13.7 13.0 11.8 9.1 9.1 8.6 9.4 10.1 9.7 8.5 6.1 4.8 6.2 4.7 0.2 1.0 1.2 0.0 0.0 0.0 0.0 0.0 0.0 0.0 0.0 0.0 0.0 0.0 0.0 0.0 0.0 0.0 0.0
17.4 18.6 18.8 19.1 18.6 18.5 17.2 16.1 14.3 14.3 14.2 13.9 12.9 10.7 6.4 7.6 7.7 8.4 9.4 1.6 1.2 0.0 0.0 0.0 0.0 0.0 0.0 0.0 0.0 0.0 0.0 0.0 0.0 0.0 0.0 0.0 0.0 0.0 0.0 0.0 0.0 0.0 0.0